Date String (YYYY-MM-DD hh:mm:ss) UTC,Instrument flags,Ambient pressure (hPa),Sample flow (lpm),Bypass flow (lpm),Sample temperature (°C),Ambient temperature (°C),ASC tube jacket temperature (°C),LED temperature (°C),Box temperature (°C),Sample RH (%),Span deviation,Mass concentration (μg/m³),Mass concentration (μg/m³),Mass concentration (μg/m³)
DateTimeUTC,F1_M11,P_M11,Q1_M11,Q2_M11,T1_M11,T2_M11,T3_M11,T4_M11,T5_M11,U1_M11,ZSPAN_M11,X2_M11,X0_M11,X1_M11
2022-05-16 16:00:00,,0825.3,4.99,0.00,29.7,27.3,00.0,38.7,31.2,18.2,0000.0,0004.65,0019.79,0002.66
2022-05-16 16:01:00,,0825.3,5.00,0.00,29.4,27.1,00.0,38.6,30.8,18.6,0000.0,0004.67,0019.59,0002.66
2022-05-16 16:02:00,,0825.3,5.00,0.00,29.2,26.8,00.0,38.5,30.3,18.7,0000.0,0004.61,0019.14,0002.66
2022-05-16 16:03:00,,0825.3,5.00,0.00,28.9,26.5,00.0,38.4,30.0,18.9,0000.0,0004.57,0017.96,0002.67
2022-05-16 16:04:00,,0825.3,5.00,0.00,28.7,26.4,00.0,38.3,29.9,19.5,0000.0,0004.53,0016.99,0002.67
2022-05-16 16:05:00,,0825.3,5.00,0.00,28.5,26.3,00.0,38.2,29.7,19.2,0000.0,0004.54,0016.46,0002.67
2022-05-16 16:06:00,,0825.3,5.00,0.00,28.3,26.2,00.0,38.1,29.6,19.4,0000.0,0004.49,0016.07,0002.66
2022-05-16 16:07:00,,0825.2,5.00,0.00,28.2,26.2,00.0,38.0,29.5,18.9,0000.0,0004.50,0016.75,0002.64
2022-05-16 16:08:00,,0825.2,5.01,0.00,28.1,26.2,00.0,37.9,29.4,19.0,0000.0,0004.41,0015.51,0002.61
2022-05-16 16:09:00,,0825.2,5.00,0.00,28.0,26.2,00.0,37.8,29.3,19.2,0000.0,0004.39,0017.54,0002.57
2022-05-16 16:10:00,,0825.2,4.98,0.00,27.9,26.2,00.0,37.7,29.3,19.8,0000.0,0004.36,0016.37,0002.56
2022-05-16 16:11:00,,0825.2,4.99,0.00,27.8,26.1,00.0,37.6,29.2,20.2,0000.0,0004.37,0016.82,0002.56
2022-05-16 16:12:00,,0825.2,5.00,0.00,27.7,25.8,00.0,37.5,29.0,20.3,0000.0,0004.41,0018.10,0002.55
2022-05-16 16:13:00,,0825.2,5.00,0.00,27.5,25.7,00.0,37.4,28.9,19.9,0000.0,0004.47,0018.46,0002.55
2022-05-16 16:14:00,,0825.1,5.01,0.00,27.4,25.6,00.0,37.3,28.8,20.4,0000.0,0004.53,0018.08,0002.55
2022-05-16 16:15:00,,0825.2,4.99,0.00,27.4,25.6,00.0,37.2,28.8,20.6,0000.0,0004.48,0017.59,0002.54
2022-05-16 16:16:00,,0825.1,5.00,0.00,27.3,25.7,00.0,37.1,28.8,20.2,0000.0,0004.43,0018.09,0002.51
2022-05-16 16:17:00,,0825.2,5.00,0.00,27.3,25.9,00.0,37.0,28.8,21.0,0000.0,0004.42,0018.46,0002.52
2022-05-16 16:18:00,,0825.2,4.99,0.00,27.3,25.9,00.0,37.0,28.7,21.4,0000.0,0004.40,0018.97,0002.52
2022-05-16 16:19:00,,0825.1,4.99,0.00,27.2,25.8,00.0,36.9,28.7,21.7,0000.0,0004.42,0019.95,0002.55
2022-05-16 16:20:00,,0825.2,5.00,0.00,27.2,25.8,00.0,36.9,28.6,21.4,0000.0,0004.42,0018.53,0002.57
2022-05-16 16:21:00,,0825.2,5.01,0.00,27.1,25.7,00.0,36.8,28.6,21.4,0000.0,0004.43,0018.51,0002.57
2022-05-16 16:22:00,,0825.2,4.99,0.00,27.1,25.8,00.0,36.7,28.6,21.3,0000.0,0004.42,0018.33,0002.55
2022-05-16 16:23:00,,0825.2,5.00,0.00,27.0,25.7,00.0,36.7,28.6,21.4,0000.0,0004.39,0017.08,0002.55
2022-05-16 16:24:00,,0825.2,5.01,0.00,27.0,25.7,00.0,36.6,28.5,21.7,0000.0,0004.30,0016.86,0002.55
2022-05-16 16:25:00,,0825.2,5.00,0.00,26.9,25.6,00.0,36.6,28.5,21.0,0000.0,0004.27,0017.42,0002.55
2022-05-16 16:26:00,,0825.2,4.99,0.00,26.9,25.6,00.0,36.5,28.4,21.8,0000.0,0004.30,0017.55,0002.56
2022-05-16 16:27:00,,0825.2,5.00,0.00,26.9,25.5,00.0,36.5,28.4,21.5,0000.0,0004.28,0017.30,0002.56
2022-05-16 16:28:00,,0825.1,5.01,0.00,26.8,25.5,00.0,36.4,28.4,21.1,0000.0,0004.26,0017.00,0002.54
2022-05-16 16:29:00,,0825.1,4.99,0.00,26.8,25.5,00.0,36.4,28.3,21.5,0000.0,0004.25,0016.11,0002.54
2022-05-16 16:30:00,,0825.1,4.99,0.00,26.7,25.4,00.0,36.3,28.3,21.7,0000.0,0004.22,0014.87,0002.52
2022-05-16 16:31:00,,0825.0,4.99,0.00,26.7,25.4,00.0,36.3,28.2,22.2,0000.0,0004.22,0014.84,0002.52
2022-05-16 16:32:00,,0825.0,5.01,0.00,26.7,25.5,00.0,36.2,28.3,22.3,0000.0,0004.23,0013.93,0002.54
2022-05-16 16:33:00,,0825.0,5.00,0.00,26.7,25.6,00.0,36.2,28.3,22.5,0000.0,0004.23,0013.88,0002.56
2022-05-16 16:34:00,,0824.9,4.99,0.00,26.7,25.6,00.0,36.1,28.3,22.5,0000.0,0004.22,0014.23,0002.57
2022-05-16 16:35:00,,0825.0,5.00,0.00,26.6,25.6,00.0,36.1,28.2,22.4,0000.0,0004.26,0014.51,0002.57
2022-05-16 16:36:00,,0824.9,5.00,0.00,26.6,25.5,00.0,36.1,28.1,22.4,0000.0,0004.24,0013.94,0002.57
2022-05-16 16:37:00,,0824.9,5.00,0.00,26.6,25.5,00.0,36.0,28.1,22.4,0000.0,0004.24,0013.97,0002.59
2022-05-16 16:38:00,,0824.9,4.99,0.00,26.5,25.5,00.0,36.0,28.1,22.4,0000.0,0004.28,0013.42,0002.61
2022-05-16 16:39:00,,0824.9,5.01,0.00,26.5,25.5,00.0,35.9,28.1,22.3,0000.0,0004.38,0014.08,0002.63
2022-05-16 16:40:00,,0824.9,4.99,0.00,26.5,25.4,00.0,35.9,28.0,22.3,0000.0,0004.43,0014.10,0002.67
2022-05-16 16:41:00,,0824.9,5.01,0.00,26.5,25.4,00.0,35.9,28.1,22.5,0000.0,0004.45,0014.24,0002.69
2022-05-16 16:42:00,,0824.9,4.99,0.00,26.5,25.5,00.0,35.8,28.1,22.5,0000.0,0004.42,0013.65,0002.70
2022-05-16 16:43:00,,0824.9,5.00,0.00,26.4,25.4,00.0,35.8,28.0,22.6,0000.0,0004.46,0013.51,0002.71
2022-05-16 16:44:00,,0824.9,5.01,0.00,26.4,25.4,00.0,35.8,28.0,23.1,0000.0,0004.46,0013.20,0002.70
2022-05-16 16:45:00,,0824.9,5.00,0.00,26.4,25.4,00.0,35.8,28.0,23.5,0000.0,0004.47,0013.20,0002.72
2022-05-16 16:46:00,,0824.8,4.99,0.00,26.4,25.4,00.0,35.7,28.1,23.6,0000.0,0004.52,0012.74,0002.73
2022-05-16 16:47:00,,0824.9,5.01,0.00,26.4,25.6,00.0,35.7,28.1,23.9,0000.0,0004.58,0013.05,0002.76
2022-05-16 16:48:00,,0824.9,5.00,0.00,26.4,25.7,00.0,35.7,28.1,23.5,0000.0,0004.59,0013.63,0002.77
2022-05-16 16:49:00,,0824.9,4.99,0.00,26.4,25.7,00.0,35.7,28.1,23.4,0000.0,0004.58,0014.91,0002.78
2022-05-16 16:50:00,,0824.9,5.01,0.00,26.4,25.6,00.0,35.7,28.1,23.1,0000.0,0004.54,0014.74,0002.84
2022-05-16 16:51:00,,0824.8,4.97,0.00,26.4,25.6,00.0,35.7,28.1,23.3,0000.0,0004.51,0016.11,0002.87
2022-05-16 16:52:00,,0824.9,5.00,0.00,26.5,25.7,00.0,35.7,28.2,23.1,0000.0,0004.53,0017.48,0002.87
2022-05-16 16:53:00,,0824.9,5.00,0.00,26.5,25.8,00.0,35.7,28.3,23.0,0000.0,0004.58,0019.73,0002.87
2022-05-16 16:54:00,,0824.8,5.00,0.00,26.5,25.9,00.0,35.7,28.3,23.5,0000.0,0004.54,0021.24,0002.89
2022-05-16 16:55:00,,0824.7,5.00,0.00,26.5,25.9,00.0,35.7,28.3,23.1,0000.0,0004.54,0022.38,0002.91
2022-05-16 16:56:00,,0824.8,4.99,0.00,26.5,25.9,00.0,35.7,28.3,23.0,0000.0,0004.59,0022.69,0002.93
2022-05-16 16:57:00,,0824.8,5.00,0.00,26.6,25.9,00.0,35.7,28.3,23.2,0000.0,0004.62,0022.61,0002.95
2022-05-16 16:58:00,,0824.6,5.01,0.00,26.5,25.9,00.0,35.7,28.3,22.7,0000.0,0004.55,0022.92,0002.94
2022-05-16 16:59:00,,0824.6,4.99,0.00,26.5,25.9,00.0,35.7,28.3,22.7,0000.0,0004.51,0022.77,0002.92
